Location: Arcusa
(42.3167°N, 0.0833°W)
Time: 13:29:31
(UTC+00:00)

Cosmos 1697 Rocket - Pass Details

Date: 25 January 2020
Orbit: 833 x 843 km, 71.0° (Epoch: 16 February)

Event Time Altitude Azimuth Distance (km) Brightness Sun altitude
Exits shadow 05:26:18 17° 338° (NNW) 1,978 4.3 -21.1°
Drops below altitude 10° 05:28:25 10° 358° (N) 2,452 5.0 -20.7°
Sets 05:31:30 0° 14° (NNE) 3,390 5.9 -20.1°
